KE5JJC Weather Reports


time (UTC)temp
C
wind
direction
speed
KPH
gust
KPH
rain 1hr
cm
rain 24hr
cm
rain mn
cm
humidity
%
barometer
mb
20260504081519 13 345 0.0 1.6 0.00 0.00 0.00 45 1008.1
20260504050012 17 294 0.0 1.6 0.00 0.00 0.00 37 1008.6
20260504044559 17 293 0.0 8.0 0.00 0.00 0.00 36 1008.6
20260504044501 17 293 0.0 8.0 0.00 0.00 0.00 36 1008.6
20260504043048 17 270 0.0 1.6 0.00 0.00 0.00 36 1008.5
20260504041542 18 252 0.0 1.6 0.00 0.00 0.00 34 1008.5
20260504040041 18 300 0.0 3.2 0.00 0.00 0.00 34 1008.4
20260504034524 18 317 0.0 1.6 0.00 0.00 0.00 34 1008.3
20260504033011 18 294 0.0 6.4 0.00 0.00 0.00 33 1008.1
20260504031509 19 34 0.0 1.6 0.00 0.00 0.00 32 1008.0
20260504030043 20 269 0.0 3.2 0.00 0.00 0.00 31 1008.0
20260504024541 20 304 0.0 8.0 0.00 0.00 0.00 31 1007.9
20260504023031 21 314 0.0 6.4 0.00 0.00 0.00 30 1008.0
20260504021533 21 49 0.0 1.6 0.00 0.00 0.00 29 1007.9
20260504020011 22 163 0.0 9.7 0.00 0.00 0.00 29 1008.0
20260504014607 22 56 0.0 9.7 0.00 0.00 0.00 26 1007.9
20260504014505 22 199 1.6 9.7 0.00 0.00 0.00 27 1007.9
20260504013100 22 311 0.0 6.4 0.00 0.00 0.00 26 1008.0
20260504011549 23 141 0.0 6.4 0.00 0.00 0.00 25 1008.1
20260504010035 23 241 0.0 9.7 0.00 0.00 0.00 26 1008.2
20260504004543 24 40 0.0 6.4 0.00 0.00 0.00 25 1008.3
20260504003028 25 202 0.0 11.3 0.00 0.00 0.00 23 1008.3
20260504001531 25 214 1.6 11.3 0.00 0.00 0.00 22 1008.5
20260504000025 25 30 0.0 8.0 0.00 0.00 0.00 22 1008.6
20260503234515 25 201 1.6 14.5 0.00 0.00 0.00 23 1008.6
20260503233059 25 209 1.6 9.7 0.00 0.00 0.00 21 1008.7
20260503233001 25 257 1.6 9.7 0.00 0.00 0.00 21 1008.8
20260503231551 25 290 1.6 11.3 0.00 0.00 0.00 23 1009.0
20260503230049 25 305 1.6 11.3 0.00 0.00 0.00 23 1009.2
20260503224546 25 123 1.6 8.0 0.00 0.00 0.00 21 1009.5
20260503223029 25 284 0.0 8.0 0.00 0.00 0.00 23 1009.7
20260503221517 25 279 1.6 12.9 0.00 0.00 0.00 23 1009.9
20260503220009 26 194 0.0 11.3 0.00 0.00 0.00 23 1010.1
20260503214505 25 260 0.0 14.5 0.00 0.00 0.00 24 1010.3
20260503213047 25 123 0.0 9.7 0.00 0.00 0.00 24 1010.6
20260503211544 25 167 3.2 16.1 0.00 0.00 0.00 23 1010.7
20260503210025 26 189 1.6 17.7 0.00 0.00 0.00 24 1010.9
20260503204555 25 269 1.6 9.7 0.00 0.00 0.00 26 1011.0
20260503203038 25 300 4.8 16.1 0.00 0.00 0.00 27 1011.1
20260503201541 24 64 3.2 8.0 0.00 0.00 0.00 24 1011.5
20260503200022 23 197 6.4 11.3 0.00 0.00 0.00 26 1011.6
20260503194514 23 100 0.0 8.0 0.00 0.00 0.00 27 1011.9
20260503193008 23 186 0.0 11.3 0.00 0.00 0.00 27 1012.1
20260503191606 23 188 1.6 8.0 0.00 0.00 0.00 27 1012.4
20260503190044 22 10 1.6 11.3 0.00 0.00 0.00 29 1012.6
20260503184530 22 108 0.0 6.4 0.00 0.00 0.00 28 1012.8
20260503183020 22 311 0.0 8.0 0.00 0.00 0.00 30 1013.1
20260503181518 21 348 0.0 11.3 0.00 0.00 0.00 30 1013.2
20260503180016 20 153 0.0 6.4 0.00 0.00 0.00 32 1013.3
20260503174558 19 50 0.0 14.5 0.00 0.00 0.00 39 1013.5
20260503174501 19 61 0.0 14.5 0.00 0.00 0.00 38 1013.5
20260503173056 18 62 0.0 6.4 0.00 0.00 0.00 45 1013.6
20260503171543 17 48 0.0 6.4 0.00 0.00 0.00 45 1013.7